Regional Weather Roundup
Issued by NWS Goodland, KS

Home | Current Version | Previous Version | Graphics & Text | Print | Product List | Glossary On
Versions: 1 2 3 4 5 6 7 8 9 10 11 12 13 14 15 16 17 18 19 20 21 22 23 24 25 26 27 28 29 30 31 32 33 34 35 36 37 38 39 40 41 42 43 44 45 46 47 48 49 50
000
ASUS43 KGLD 010159
RWRGLD

GOODLAND FORECAST AREA HOURLY WEATHER ROUNDUP
NATIONAL WEATHER SERVICE GOODLAND KS
800 PM MDT THU JUL 31 2014

...OFFICIAL OBSERVATIONS...

CITY           SKY/WX    TMP DP  RH WIND       PRES   REMARKS
GOODLAND KS    CLEAR     77  45  32 CALM      30.14S
HILL CITY KS   MOCLDY    83  52  34 CALM      30.03S
IMPERIAL NEB   CLEAR     77  59  53 N3        30.10R
MCCOOK NEB     MOCLDY    79  55  43 N6        30.06R
AKRON CO       CLEAR     75  47  36 SE3       30.20R
BURLINGTON CO  CLEAR     70  54  56 S6        30.18R
LIMON CO       PTCLDY    67  49  52 SW10      30.26R
$$

...UNOFFICIAL OBSERVATIONS...

CITY           SKY/WX    TMP DP  RH WIND       PRES   REMARKS
COLBY KS       CLEAR     75  55  50 CALM      30.11R
GOVE KS          N/A     78  32  18 MISG        N/A
NORTON KS      CLOUDY    79  48  34 N6        30.03S
WAKEENEY KS      N/A     81  46  28 MISG        N/A
TRENTON NEB      N/A     79  32  18 CALM        N/A
KIT CARSON CO    N/A     73  53  50 N5          N/A
YUMA CO          N/A     77  54  44 CALM        N/A
$$



USA.gov is the U.S. government's official web portal to all federal, state and local government web resources and services.